Camdenton, MO

3:22 PM CDT on March 29, 2017 (GMT -0500)
Camdenton

Weather History for KH21 - October, 2013

Change the Weather History Date:

Thursday, October 3, 2013

  Actual Average (KAIZ) Record (KAIZ)
Temperature  
Mean Temperature 74 °F -  
Max Temperature 82 °F 70 °F 93 °F (2006)
Min Temperature 66 °F 47 °F 37 °F (2004)
Cooling Degree Days 9    
Growing Degree Days 24 (Base 50)    
Moisture  
Dew Point 67 °F    
Average Humidity 80    
Maximum Humidity 94    
Minimum Humidity 62    
Precipitation  
Precipitation 0.00 in - - ()
Sea Level Pressure  
Sea Level Pressure 29.93 in    
Wind  
Wind Speed 10 mph (SSE)    
Max Wind Speed 13 mph    
Max Gust Speed 21 mph    
Visibility 10 miles    
Events Rain    
Averages and records for this station are not official NWS values.
T = Trace of Precipitation, MM = Missing Value Source: NWS Daily Summary

Daily Weather History Graph

Daily Weather History Graph

Search for Another Location

Airport or City:

Trip Planner

Search our weather history database for the weather conditions in past years. The results will help you decide how hot, cold, wet, or windy it might be!

Date:

Astronomy

Oct. 03, 2013 Rise Set
Actual Time 7:08 AM CDT 6:50 PM CDT
Civil Twilight 6:42 AM CDT 7:16 PM CDT
Nautical Twilight 6:11 AM CDT 7:46 PM CDT
Astronomical Twilight 5:41 AM CDT 8:17 PM CDT
Moon 5:43 AM CDT (10/3) 5:58 PM CDT (10/3)
Length of Visible Light 12h 34m
Length of Day
11h 41m
Waning Crescent, 2% of the Moon is Illuminated
Oct 3
Waning Crescent
Oct 4
New
Oct 11
First Quarter
Oct 18
Full
Oct 26
Last Quarter

Hourly Weather History & Observations

Time (CDT) Temp. Heat Index Dew Point Humidity Pressure Visibility Wind Dir Wind Speed Gust Speed Precip Events Conditions
12:15 AM 68.0 °F - 66.2 °F 94% 29.97 in 10.0 mi SSE 10.4 mph - N/A   Clear
12:35 AM 68.0 °F - 66.2 °F 94% 29.97 in 10.0 mi SSE 10.4 mph 17.3 mph N/A   Clear
12:55 AM 68.0 °F - 66.2 °F 94% 29.97 in 10.0 mi SSE 10.4 mph - N/A   Scattered Clouds
1:15 AM 68.0 °F - 66.2 °F 94% 29.97 in 10.0 mi SSE 10.4 mph - N/A   Scattered Clouds
1:35 AM 68.0 °F - 66.2 °F 94% 29.97 in 10.0 mi SSE 10.4 mph - N/A   Clear
1:55 AM 68.0 °F - 66.2 °F 94% 29.97 in 10.0 mi SSE 9.2 mph - N/A   Clear
2:15 AM 68.0 °F - 66.2 °F 94% 29.97 in 10.0 mi SE 9.2 mph - N/A   Clear
2:35 AM 68.0 °F - 66.2 °F 94% 29.97 in 10.0 mi SSE 10.4 mph 16.1 mph N/A   Scattered Clouds
2:55 AM 68.0 °F - 64.4 °F 88% 29.96 in 10.0 mi SE 11.5 mph - N/A   Mostly Cloudy
3:15 AM 68.0 °F - 64.4 °F 88% 29.96 in 10.0 mi SSE 10.4 mph - N/A   Mostly Cloudy
3:35 AM 68.0 °F - 64.4 °F 88% 29.95 in 10.0 mi SE 10.4 mph - N/A   Scattered Clouds
3:55 AM 68.0 °F - 64.4 °F 88% 29.95 in 10.0 mi SSE 10.4 mph - N/A   Scattered Clouds
4:15 AM 68.0 °F - 64.4 °F 88% 29.96 in 10.0 mi SSE 10.4 mph - N/A   Scattered Clouds
4:35 AM 68.0 °F - 64.4 °F 88% 29.96 in 10.0 mi SSE 10.4 mph - N/A Rain Rain
4:55 AM 68.0 °F - 64.4 °F 88% 29.95 in 10.0 mi SSE 11.5 mph - N/A   Overcast
5:15 AM 68.0 °F - 64.4 °F 88% 29.95 in 10.0 mi SSE 9.2 mph - N/A   Mostly Cloudy
5:35 AM 68.0 °F - 64.4 °F 88% 29.95 in 10.0 mi SSE 10.4 mph 19.6 mph N/A   Scattered Clouds
5:55 AM 68.0 °F - 64.4 °F 88% 29.95 in 10.0 mi SSE 10.4 mph - N/A   Clear
6:15 AM 68.0 °F - 64.4 °F 88% 29.95 in 10.0 mi SSE 9.2 mph - N/A   Clear
6:35 AM 66.2 °F - 64.4 °F 94% 29.95 in 10.0 mi SSE 9.2 mph - N/A   Scattered Clouds
6:55 AM 66.2 °F - 64.4 °F 94% 29.95 in 10.0 mi SSE 10.4 mph - N/A   Scattered Clouds
7:15 AM 66.2 °F - 64.4 °F 94% 29.95 in 10.0 mi SSE 10.4 mph - N/A   Clear
7:35 AM 66.2 °F - 64.4 °F 94% 29.94 in 10.0 mi SE 8.1 mph - N/A   Clear
7:55 AM 68.0 °F - 64.4 °F 88% 29.94 in 10.0 mi SSE 9.2 mph - N/A   Clear
8:15 AM 68.0 °F - 64.4 °F 88% 29.95 in 10.0 mi SSE 9.2 mph - N/A   Clear
8:35 AM 69.8 °F - 64.4 °F 83% 29.95 in 10.0 mi SSE 10.4 mph 16.1 mph N/A   Clear
8:55 AM 71.6 °F - 66.2 °F 83% 29.96 in 10.0 mi SSE 10.4 mph 17.3 mph N/A   Clear
9:15 AM 71.6 °F - 68.0 °F 88% 29.96 in 10.0 mi SSE 9.2 mph 16.1 mph N/A   Clear
9:35 AM 73.4 °F - 68.0 °F 83% 29.97 in 10.0 mi South 9.2 mph 16.1 mph N/A   Clear
9:55 AM 75.2 °F - 68.0 °F 78% 29.97 in 10.0 mi South 6.9 mph 18.4 mph N/A   Clear
10:15 AM 77.0 °F - 68.0 °F 74% 29.97 in 10.0 mi SSW 12.7 mph - N/A   Clear
10:35 AM 77.0 °F - 68.0 °F 74% 29.96 in 10.0 mi South 12.7 mph - N/A   Clear
10:55 AM 78.8 °F - 68.0 °F 69% 29.96 in 10.0 mi SSW 11.5 mph 20.7 mph N/A   Scattered Clouds
11:15 AM 78.8 °F - 68.0 °F 69% 29.95 in 10.0 mi South 10.4 mph 18.4 mph N/A   Scattered Clouds
11:35 AM 78.8 °F - 68.0 °F 69% 29.95 in 10.0 mi South 12.7 mph 18.4 mph N/A   Mostly Cloudy
11:55 AM 78.8 °F - 68.0 °F 69% 29.95 in 10.0 mi SSE 9.2 mph - N/A   Mostly Cloudy
12:15 PM 80.6 °F 83.2 °F 68.0 °F 65% 29.94 in 10.0 mi SSE 12.7 mph 17.3 mph N/A   Mostly Cloudy
12:35 PM 80.6 °F 83.2 °F 68.0 °F 65% 29.93 in 10.0 mi South 11.5 mph 19.6 mph N/A   Mostly Cloudy
12:55 PM 80.6 °F 83.2 °F 68.0 °F 65% 29.92 in 10.0 mi South 10.4 mph - N/A   Mostly Cloudy
1:15 PM 80.6 °F 83.2 °F 68.0 °F 65% 29.92 in 10.0 mi SSE 12.7 mph - N/A   Overcast
1:35 PM 80.6 °F 83.2 °F 68.0 °F 65% 29.90 in 10.0 mi SSE 10.4 mph 18.4 mph N/A   Mostly Cloudy
1:55 PM 80.6 °F 83.2 °F 68.0 °F 65% 29.90 in 10.0 mi SSE 11.5 mph 17.3 mph N/A   Mostly Cloudy
2:15 PM 80.6 °F 83.2 °F 68.0 °F 65% 29.90 in 10.0 mi SSE 9.2 mph - N/A   Overcast
2:35 PM 80.6 °F 83.2 °F 68.0 °F 65% 29.90 in 10.0 mi SSE 9.2 mph 16.1 mph N/A   Overcast
2:55 PM 80.6 °F 83.2 °F 68.0 °F 65% 29.90 in 10.0 mi SSE 11.5 mph - N/A   Mostly Cloudy
3:15 PM 82.4 °F 85.4 °F 68.0 °F 62% 29.89 in 10.0 mi SSE 10.4 mph 16.1 mph N/A   Mostly Cloudy
3:35 PM 80.6 °F 83.2 °F 68.0 °F 65% 29.89 in 10.0 mi SE 9.2 mph 16.1 mph N/A   Mostly Cloudy
3:55 PM 82.4 °F 85.4 °F 68.0 °F 62% 29.88 in 10.0 mi SSE 11.5 mph - N/A   Mostly Cloudy
4:15 PM 82.4 °F 85.4 °F 68.0 °F 62% 29.88 in 10.0 mi SSE 10.4 mph - N/A   Mostly Cloudy
4:35 PM 82.4 °F 85.4 °F 68.0 °F 62% 29.87 in 10.0 mi SSE 10.4 mph 17.3 mph N/A   Scattered Clouds
4:55 PM 80.6 °F 83.2 °F 68.0 °F 65% 29.87 in 10.0 mi SE 10.4 mph 16.1 mph N/A   Scattered Clouds
5:15 PM 80.6 °F 83.2 °F 68.0 °F 65% 29.87 in 10.0 mi SE 11.5 mph - N/A   Mostly Cloudy
5:35 PM 80.6 °F 83.2 °F 68.0 °F 65% 29.87 in 10.0 mi SE 11.5 mph - N/A   Scattered Clouds
5:55 PM 78.8 °F - 68.0 °F 69% 29.87 in 10.0 mi SSE 6.9 mph - N/A   Clear
6:15 PM 78.8 °F - 68.0 °F 69% 29.87 in 10.0 mi SE 9.2 mph - N/A   Clear
6:35 PM 77.0 °F - 68.0 °F 74% 29.87 in 10.0 mi SE 9.2 mph - N/A   Clear
6:55 PM 77.0 °F - 68.0 °F 74% 29.88 in 10.0 mi SE 9.2 mph - N/A   Clear
7:15 PM 75.2 °F - 68.0 °F 78% 29.88 in 10.0 mi SE 8.1 mph - N/A   Clear
7:35 PM 73.4 °F - 68.0 °F 83% 29.88 in 10.0 mi SE 8.1 mph - N/A   Clear
7:55 PM 73.4 °F - 68.0 °F 83% 29.89 in 10.0 mi SE 8.1 mph - N/A   Clear
8:15 PM 73.4 °F - 68.0 °F 83% 29.89 in 10.0 mi SE 9.2 mph - N/A   Clear
8:35 PM 73.4 °F - 68.0 °F 83% 29.89 in 10.0 mi SE 9.2 mph - N/A   Clear
8:55 PM 71.6 °F - 68.0 °F 88% 29.90 in 10.0 mi SE 10.4 mph - N/A   Clear
9:15 PM 71.6 °F - 68.0 °F 88% 29.90 in 10.0 mi SE 9.2 mph - N/A   Clear
9:35 PM 71.6 °F - 68.0 °F 88% 29.90 in 10.0 mi SE 9.2 mph - N/A   Clear
9:55 PM 71.6 °F - 68.0 °F 88% 29.91 in 10.0 mi SE 10.4 mph - N/A   Clear
10:15 PM 71.6 °F - 68.0 °F 88% 29.91 in 10.0 mi SE 8.1 mph - N/A   Clear
10:35 PM 69.8 °F - 68.0 °F 94% 29.91 in 10.0 mi SE 9.2 mph - N/A   Clear
11:35 PM 69.8 °F - 68.0 °F 94% 29.90 in 10.0 mi SE 9.2 mph - N/A   Clear
11:55 PM 69.8 °F - 68.0 °F 94% 29.90 in 10.0 mi SSE 10.4 mph - N/A   Clear